| time (UTC) | temp F | wind direction | speed knots | gust knots | rain 1hr in | rain 24hr in | rain mn in | humidity % | barometer mb |
| 20260507151016 | 55 | 90 | 0.0 | 0.9 | 0.00 | 0.10 | 0.08 | 78 | 1012.2 |
| 20260507150516 | 55 | 0.0 | 0.0 | 0.00 | 0.12 | 0.08 | 76 | 1012.2 | |
| 20260507150016 | 55 | 90 | 0.0 | 0.9 | 0.00 | 0.12 | 0.08 | 78 | 1012.3 |
| 20260507145516 | 54 | 0.0 | 0.0 | 0.00 | 0.12 | 0.08 | 77 | 1012.4 | |
| 20260507145016 | 54 | 90 | 0.0 | 0.9 | 0.00 | 0.12 | 0.08 | 81 | 1012.4 |
| 20260507144516 | 53 | 90 | 0.0 | 0.9 | 0.00 | 0.12 | 0.08 | 80 | 1012.4 |
| 20260507144017 | 53 | 0.0 | 0.0 | 0.00 | 0.13 | 0.08 | 83 | 1012.5 | |
| 20260507143516 | 52 | 0.0 | 0.0 | 0.00 | 0.13 | 0.08 | 81 | 1012.6 | |
| 20260507143016 | 52 | 90 | 0.0 | 0.9 | 0.00 | 0.14 | 0.08 | 83 | 1012.6 |
| 20260507142516 | 52 | 90 | 0.0 | 0.9 | 0.00 | 0.14 | 0.08 | 84 | 1012.5 |
| 20260507142016 | 52 | 0.0 | 0.0 | 0.00 | 0.16 | 0.08 | 88 | 1012.7 | |
| 20260507141516 | 52 | 0.0 | 0.0 | 0.00 | 0.17 | 0.08 | 87 | 1012.7 | |
| 20260507141036 | 52 | 0.0 | 0.0 | 0.00 | 0.19 | 0.08 | 86 | 1012.8 | |
| 20260507140515 | 52 | 0.0 | 0.0 | 0.00 | 0.20 | 0.08 | 87 | 1012.7 | |
| 20260507140016 | 52 | 0.0 | 0.0 | 0.00 | 0.21 | 0.08 | 87 | 1012.9 | |
| 20260507135516 | 52 | 0.0 | 0.0 | 0.00 | 0.22 | 0.08 | 86 | 1012.8 | |
| 20260507135015 | 52 | 0.0 | 0.0 | 0.00 | 0.23 | 0.08 | 87 | 1012.9 | |
| 20260507134516 | 51 | 90 | 0.0 | 0.9 | 0.00 | 0.25 | 0.08 | 85 | 1012.9 |
| 20260507134017 | 52 | 0.0 | 0.0 | 0.00 | 0.26 | 0.08 | 88 | 1012.8 | |
| 20260507133536 | 52 | 0.0 | 0.0 | 0.00 | 0.28 | 0.08 | 89 | 1012.8 | |
| 20260507133016 | 52 | 0.0 | 0.0 | 0.00 | 0.30 | 0.08 | 89 | 1013.0 | |
| 20260507132516 | 52 | 0.0 | 0.0 | 0.00 | 0.32 | 0.08 | 89 | 1012.9 | |
| 20260507132016 | 52 | 0.0 | 0.0 | 0.00 | 0.33 | 0.08 | 89 | 1012.7 | |
| 20260507131516 | 51 | 0.0 | 0.0 | 0.00 | 0.34 | 0.08 | 88 | 1012.7 | |
| 20260507131036 | 51 | 0.0 | 0.0 | 0.00 | 0.34 | 0.08 | 90 | 1012.7 | |
| 20260507130516 | 51 | 0.0 | 0.0 | 0.00 | 0.35 | 0.08 | 91 | 1012.7 | |
| 20260507130016 | 51 | 0.0 | 0.0 | 0.00 | 0.35 | 0.08 | 91 | 1012.9 | |
| 20260507125536 | 51 | 0.0 | 0.0 | 0.00 | 0.35 | 0.08 | 90 | 1013.0 | |
| 20260507125016 | 51 | 0.0 | 0.0 | 0.00 | 0.36 | 0.08 | 91 | 1012.9 | |
| 20260507124516 | 51 | 0.0 | 0.0 | 0.00 | 0.36 | 0.08 | 91 | 1012.8 | |
| 20260507124016 | 51 | 90 | 0.0 | 1.7 | 0.00 | 0.36 | 0.08 | 92 | 1012.8 |
| 20260507123516 | 50 | 0.0 | 0.0 | 0.00 | 0.36 | 0.08 | 92 | 1012.9 | |
| 20260507123015 | 50 | 0.0 | 0.0 | 0.00 | 0.37 | 0.08 | 91 | 1012.8 | |
| 20260507122516 | 50 | 0.0 | 0.0 | 0.00 | 0.38 | 0.08 | 91 | 1012.7 | |
| 20260507122016 | 50 | 0.0 | 0.0 | 0.00 | 0.38 | 0.08 | 91 | 1012.7 | |
| 20260507121516 | 50 | 0.0 | 0.0 | 0.00 | 0.38 | 0.08 | 91 | 1012.7 | |
| 20260507121016 | 51 | 0.0 | 0.0 | 0.00 | 0.38 | 0.08 | 92 | 1012.8 | |
| 20260507120515 | 51 | 90 | 0.0 | 0.9 | 0.00 | 0.38 | 0.08 | 93 | 1012.6 |
| 20260507120016 | 51 | 0.0 | 0.0 | 0.00 | 0.38 | 0.08 | 93 | 1012.4 | |
| 20260507115535 | 51 | 0.0 | 0.0 | 0.00 | 0.38 | 0.08 | 93 | 1012.5 | |
| 20260507115015 | 51 | 0.0 | 0.0 | 0.00 | 0.38 | 0.08 | 93 | 1012.6 | |
| 20260507114516 | 51 | 0.0 | 0.0 | 0.00 | 0.38 | 0.08 | 93 | 1012.5 | |
| 20260507114015 | 51 | 90 | 0.0 | 0.9 | 0.00 | 0.38 | 0.08 | 93 | 1012.4 |
| 20260507113516 | 51 | 90 | 0.0 | 0.9 | 0.00 | 0.38 | 0.08 | 94 | 1012.4 |
| 20260507113015 | 51 | 0.0 | 0.0 | 0.00 | 0.38 | 0.08 | 94 | 1012.4 | |
| 20260507112516 | 52 | 90 | 0.0 | 0.9 | 0.00 | 0.38 | 0.08 | 95 | 1012.3 |
| 20260507112036 | 52 | 90 | 0.0 | 1.7 | 0.00 | 0.38 | 0.08 | 96 | 1012.3 |
| 20260507111515 | 52 | 90 | 0.0 | 0.9 | 0.00 | 0.38 | 0.08 | 96 | 1012.4 |
| 20260507111016 | 52 | 0.0 | 0.0 | 0.00 | 0.38 | 0.08 | 96 | 1012.4 | |
| 20260507110516 | 52 | 90 | 0.0 | 0.9 | 0.00 | 0.38 | 0.08 | 96 | 1012.4 |
| 20260507110015 | 52 | 0.0 | 0.0 | 0.00 | 0.38 | 0.08 | 96 | 1012.3 | |
| 20260507105515 | 52 | 0.0 | 0.0 | 0.00 | 0.38 | 0.08 | 96 | 1012.3 | |
| 20260507105015 | 52 | 0.0 | 0.0 | 0.00 | 0.38 | 0.08 | 96 | 1012.2 | |
| 20260507104515 | 52 | 0.0 | 0.0 | 0.00 | 0.38 | 0.08 | 96 | 1012.0 | |
| 20260507104016 | 52 | 0.0 | 0.0 | 0.00 | 0.38 | 0.08 | 96 | 1012.1 | |
| 20260507103516 | 52 | 0.0 | 0.0 | 0.00 | 0.38 | 0.08 | 96 | 1011.9 | |
| 20260507103016 | 52 | 0.0 | 0.0 | 0.00 | 0.38 | 0.08 | 96 | 1011.9 | |
| 20260507102516 | 52 | 0.0 | 0.0 | 0.00 | 0.38 | 0.08 | 96 | 1011.9 | |
| 20260507102015 | 52 | 0.0 | 0.0 | 0.00 | 0.38 | 0.08 | 96 | 1011.8 | |
| 20260507101516 | 52 | 0.0 | 0.0 | 0.00 | 0.38 | 0.08 | 96 | 1011.8 | |
| 20260507101015 | 52 | 0.0 | 0.0 | 0.00 | 0.38 | 0.08 | 96 | 1011.8 | |
| 20260507100515 | 52 | 0.0 | 0.0 | 0.00 | 0.38 | 0.08 | 95 | 1011.6 | |
| 20260507100035 | 52 | 0.0 | 0.0 | 0.00 | 0.38 | 0.08 | 95 | 1011.6 | |
| 20260507095515 | 52 | 0.0 | 0.0 | 0.00 | 0.38 | 0.08 | 95 | 1011.8 | |
| 20260507095016 | 52 | 0.0 | 0.0 | 0.00 | 0.38 | 0.08 | 95 | 1011.7 | |
| 20260507094515 | 52 | 0.0 | 0.0 | 0.00 | 0.38 | 0.08 | 95 | 1011.8 | |
| 20260507094015 | 52 | 0.0 | 0.0 | 0.01 | 0.38 | 0.08 | 95 | 1011.7 | |
| 20260507093535 | 52 | 0.0 | 0.0 | 0.01 | 0.38 | 0.08 | 95 | 1011.5 | |
| 20260507093015 | 52 | 0.0 | 0.0 | 0.01 | 0.38 | 0.08 | 95 | 1011.5 | |
| 20260507092515 | 52 | 0.0 | 0.0 | 0.01 | 0.38 | 0.08 | 95 | 1011.4 | |
| 20260507092016 | 52 | 0.0 | 0.0 | 0.01 | 0.38 | 0.08 | 95 | 1011.4 | |
| 20260507091516 | 52 | 0.0 | 0.0 | 0.01 | 0.38 | 0.08 | 95 | 1011.6 | |
| 20260507091017 | 52 | 0.0 | 0.0 | 0.01 | 0.38 | 0.08 | 95 | 1011.6 | |
| 20260507090517 | 52 | 0.0 | 0.0 | 0.01 | 0.38 | 0.08 | 95 | 1011.7 | |
| 20260507090017 | 52 | 0.0 | 0.0 | 0.01 | 0.38 | 0.08 | 95 | 1011.7 | |
| 20260507085537 | 52 | 0.0 | 0.0 | 0.01 | 0.38 | 0.08 | 95 | 1011.5 | |
| 20260507085017 | 52 | 0.0 | 0.0 | 0.01 | 0.38 | 0.08 | 95 | 1011.5 | |
| 20260507084517 | 52 | 0.0 | 0.0 | 0.01 | 0.38 | 0.08 | 95 | 1011.4 | |
| 20260507084018 | 52 | 0.0 | 0.0 | 0.00 | 0.37 | 0.07 | 95 | 1011.4 | |
| 20260507083537 | 52 | 0.0 | 0.0 | 0.00 | 0.37 | 0.07 | 95 | 1011.3 | |
| 20260507083057 | 52 | 0.0 | 0.0 | 0.00 | 0.37 | 0.07 | 95 | 1011.3 | |
| 20260507082517 | 53 | 0.0 | 0.0 | 0.00 | 0.37 | 0.07 | 95 | 1011.3 | |
| 20260507082017 | 53 | 0.0 | 0.0 | 0.00 | 0.37 | 0.07 | 95 | 1011.1 | |
| 20260507081518 | 53 | 0.0 | 0.0 | 0.00 | 0.37 | 0.07 | 95 | 1010.9 | |
| 20260507081017 | 53 | 90 | 0.0 | 0.9 | 0.00 | 0.37 | 0.07 | 95 | 1010.8 |
| 20260507080517 | 53 | 90 | 0.0 | 0.9 | 0.00 | 0.37 | 0.07 | 95 | 1010.8 |
| 20260507080037 | 53 | 0.0 | 0.0 | 0.00 | 0.37 | 0.07 | 95 | 1010.6 | |
| 20260507075517 | 53 | 0.0 | 0.0 | 0.00 | 0.37 | 0.07 | 95 | 1010.7 | |
| 20260507075017 | 53 | 90 | 0.0 | 0.9 | 0.00 | 0.37 | 0.07 | 95 | 1010.6 |
| 20260507074517 | 53 | 90 | 0.0 | 0.9 | 0.00 | 0.37 | 0.07 | 95 | 1010.7 |
| 20260507074017 | 54 | 90 | 0.0 | 1.7 | 0.00 | 0.37 | 0.07 | 95 | 1010.5 |
| 20260507073518 | 54 | 0.0 | 0.0 | 0.00 | 0.37 | 0.07 | 95 | 1010.4 | |
| 20260507073017 | 54 | 0.0 | 0.0 | 0.00 | 0.37 | 0.07 | 95 | 1010.5 | |
| 20260507072517 | 54 | 90 | 0.0 | 0.9 | 0.00 | 0.37 | 0.07 | 95 | 1010.4 |
| 20260507072038 | 54 | 0.0 | 0.0 | 0.00 | 0.37 | 0.07 | 95 | 1010.5 | |
| 20260507071517 | 54 | 0.0 | 0.0 | 0.00 | 0.37 | 0.07 | 95 | 1010.4 | |
| 20260507071017 | 54 | 0.0 | 0.0 | 0.00 | 0.37 | 0.07 | 95 | 1010.3 | |
| 20260507070517 | 54 | 0.0 | 0.0 | 0.00 | 0.37 | 0.07 | 95 | 1010.5 | |
| 20260507070017 | 54 | 0.0 | 0.0 | 0.00 | 0.37 | 0.07 | 95 | 1010.4 | |
| 20260507065517 | 55 | 0.0 | 0.0 | 0.00 | 0.37 | 0.07 | 95 | 1010.4 | |
| 20260507065017 | 55 | 90 | 0.0 | 0.9 | 0.00 | 0.37 | 0.07 | 95 | 1010.6 |
| 20260507064517 | 55 | 0.0 | 0.0 | 0.01 | 0.37 | 0.07 | 95 | 1010.4 | |
| 20260507064018 | 55 | 90 | 0.0 | 0.9 | 0.01 | 0.37 | 0.07 | 95 | 1010.4 |
| 20260507063517 | 55 | 90 | 0.0 | 0.9 | 0.01 | 0.37 | 0.07 | 95 | 1010.5 |
| 20260507063017 | 55 | 0.0 | 0.0 | 0.01 | 0.37 | 0.07 | 95 | 1010.6 | |
| 20260507062517 | 55 | 0.0 | 0.0 | 0.01 | 0.37 | 0.07 | 95 | 1010.4 | |
| 20260507062058 | 55 | 0.0 | 0.0 | 0.01 | 0.37 | 0.07 | 96 | 1010.4 | |
| 20260507061517 | 55 | 0.0 | 0.0 | 0.01 | 0.37 | 0.07 | 95 | 1010.4 | |
| 20260507061017 | 55 | 90 | 0.0 | 0.9 | 0.01 | 0.37 | 0.07 | 95 | 1010.2 |
| 20260507060517 | 56 | 0.0 | 0.0 | 0.02 | 0.37 | 0.07 | 95 | 1010.1 | |
| 20260507060017 | 56 | 0.0 | 0.0 | 0.04 | 0.37 | 0.07 | 95 | 1010.4 | |
| 20260507055517 | 56 | 0.0 | 0.0 | 0.05 | 0.37 | 0.07 | 95 | 1010.5 | |
| 20260507055017 | 56 | 0.0 | 0.0 | 0.06 | 0.37 | 0.07 | 95 | 1010.5 | |
| 20260507054537 | 56 | 0.0 | 0.0 | 0.06 | 0.36 | 0.06 | 95 | 1010.5 | |
| 20260507054017 | 56 | 90 | 0.0 | 0.9 | 0.06 | 0.36 | 0.06 | 95 | 1010.8 |
| 20260507053518 | 56 | 90 | 0.0 | 0.9 | 0.06 | 0.36 | 0.06 | 94 | 1010.5 |
| 20260507053017 | 56 | 0.0 | 0.0 | 0.06 | 0.36 | 0.06 | 94 | 1010.6 | |
| 20260507052517 | 56 | 0.0 | 0.0 | 0.06 | 0.36 | 0.06 | 94 | 1010.4 | |
| 20260507052017 | 56 | 90 | 0.0 | 0.9 | 0.06 | 0.36 | 0.06 | 93 | 1010.1 |
| 20260507051518 | 56 | 0.0 | 0.0 | 0.06 | 0.36 | 0.06 | 92 | 1010.3 | |
| 20260507051017 | 57 | 90 | 0.0 | 0.9 | 0.06 | 0.36 | 0.06 | 92 | 1010.5 |
| 20260507050537 | 57 | 90 | 0.0 | 0.9 | 0.05 | 0.35 | 0.05 | 91 | 1011.0 |
| 20260507050017 | 58 | 90 | 0.0 | 0.9 | 0.03 | 0.33 | 0.03 | 90 | 1011.0 |
| 20260507045517 | 58 | 90 | 0.0 | 0.9 | 0.02 | 0.32 | 0.02 | 88 | 1011.0 |
| 20260507045017 | 59 | 90 | 0.0 | 0.9 | 0.01 | 0.31 | 0.01 | 87 | 1010.4 |
| 20260507044517 | 59 | 90 | 0.0 | 1.7 | 0.00 | 0.30 | 0.00 | 85 | 1010.5 |
| 20260507044037 | 59 | 90 | 0.0 | 2.6 | 0.00 | 0.30 | 0.00 | 84 | 1010.4 |
| 20260507043517 | 59 | 90 | 0.0 | 1.7 | 0.00 | 0.30 | 0.00 | 84 | 1010.5 |
| 20260507043038 | 60 | 90 | 0.0 | 2.6 | 0.00 | 0.30 | 0.00 | 83 | 1010.7 |
| 20260507042516 | 60 | 90 | 0.0 | 2.6 | 0.00 | 0.30 | 0.00 | 84 | 1010.8 |
| 20260507042016 | 60 | 90 | 0.0 | 0.9 | 0.00 | 0.30 | 0.00 | 84 | 1010.6 |
| 20260507041517 | 60 | 90 | 0.0 | 1.7 | 0.00 | 0.30 | 0.00 | 84 | 1010.4 |
| 20260507041018 | 60 | 90 | 0.0 | 0.9 | 0.00 | 0.30 | 0.00 | 84 | 1010.4 |
| 20260507040517 | 60 | 90 | 0.0 | 0.9 | 0.00 | 0.30 | 0.00 | 83 | 1010.3 |
| 20260507040037 | 61 | 0.0 | 0.0 | 0.00 | 0.30 | 0.00 | 83 | 1010.1 | |
| 20260507035517 | 61 | 0.0 | 0.0 | 0.00 | 0.30 | 0.30 | 83 | 1010.1 | |
| 20260507035017 | 61 | 90 | 0.0 | 1.7 | 0.00 | 0.30 | 0.30 | 84 | 1009.8 |
| 20260507034516 | 61 | 90 | 0.0 | 0.9 | 0.00 | 0.30 | 0.30 | 83 | 1010.0 |
| 20260507034037 | 61 | 90 | 0.0 | 1.7 | 0.00 | 0.30 | 0.30 | 83 | 1010.0 |
| 20260507033517 | 61 | 90 | 0.0 | 1.7 | 0.00 | 0.30 | 0.30 | 83 | 1010.0 |
| 20260507033017 | 62 | 90 | 0.0 | 1.7 | 0.00 | 0.30 | 0.30 | 85 | 1010.1 |
| 20260507032518 | 62 | 90 | 0.0 | 0.9 | 0.00 | 0.30 | 0.30 | 86 | 1010.1 |
| 20260507032017 | 62 | 90 | 0.9 | 4.3 | 0.00 | 0.30 | 0.30 | 85 | 1010.0 |
| 20260507031517 | 62 | 90 | 0.0 | 2.6 | 0.00 | 0.30 | 0.30 | 86 | 1009.9 |
| 20260507031017 | 62 | 90 | 0.0 | 0.9 | 0.00 | 0.30 | 0.30 | 87 | 1009.7 |
| 20260507030516 | 62 | 90 | 0.0 | 0.9 | 0.00 | 0.30 | 0.30 | 87 | 1009.5 |
| 20260507030016 | 62 | 90 | 0.0 | 0.9 | 0.00 | 0.30 | 0.30 | 86 | 1009.5 |
| 20260507025538 | 62 | 90 | 0.0 | 1.7 | 0.00 | 0.30 | 0.30 | 85 | 1009.6 |
| 20260507025037 | 62 | 0.0 | 0.0 | 0.00 | 0.30 | 0.30 | 86 | 1009.6 | |
| 20260507024516 | 62 | 90 | 0.0 | 0.9 | 0.00 | 0.30 | 0.30 | 86 | 1009.5 |
| 20260507024017 | 63 | 90 | 0.0 | 0.9 | 0.00 | 0.30 | 0.30 | 85 | 1009.4 |
| 20260507023517 | 63 | 90 | 0.0 | 1.7 | 0.00 | 0.30 | 0.30 | 85 | 1009.3 |
| 20260507023016 | 63 | 90 | 0.0 | 1.7 | 0.00 | 0.30 | 0.30 | 86 | 1009.2 |
| 20260507022517 | 63 | 90 | 0.0 | 0.9 | 0.00 | 0.30 | 0.30 | 87 | 1009.5 |
| 20260507022017 | 63 | 90 | 0.0 | 0.9 | 0.00 | 0.30 | 0.30 | 88 | 1009.4 |
| 20260507021536 | 64 | 90 | 0.0 | 0.9 | 0.00 | 0.30 | 0.30 | 87 | 1009.2 |
| 20260507021057 | 64 | 0.0 | 0.0 | 0.00 | 0.30 | 0.30 | 87 | 1009.1 | |
| 20260507020517 | 64 | 90 | 0.0 | 0.9 | 0.00 | 0.30 | 0.30 | 86 | 1009.0 |
| 20260507020016 | 64 | 90 | 0.0 | 1.7 | 0.00 | 0.30 | 0.30 | 86 | 1008.8 |
| 20260507015518 | 64 | 0.0 | 0.0 | 0.00 | 0.30 | 0.30 | 86 | 1009.1 | |
| 20260507015017 | 64 | 90 | 0.0 | 2.6 | 0.00 | 0.30 | 0.30 | 85 | 1009.1 |
| 20260507014516 | 64 | 90 | 0.0 | 1.7 | 0.00 | 0.30 | 0.30 | 85 | 1009.1 |
| 20260507014016 | 64 | 90 | 0.0 | 1.7 | 0.00 | 0.30 | 0.30 | 86 | 1009.3 |
| 20260507013536 | 65 | 90 | 0.0 | 1.7 | 0.00 | 0.30 | 0.30 | 87 | 1009.3 |
| 20260507013016 | 65 | 90 | 0.0 | 1.7 | 0.00 | 0.30 | 0.30 | 89 | 1009.4 |
| 20260507012537 | 65 | 90 | 0.0 | 0.9 | 0.00 | 0.30 | 0.30 | 91 | 1009.3 |
| 20260507012017 | 65 | 0.0 | 0.0 | 0.00 | 0.30 | 0.30 | 92 | 1009.3 | |
| 20260507011516 | 65 | 0.0 | 0.0 | 0.00 | 0.30 | 0.30 | 92 | 1009.0 | |
| 20260507011016 | 65 | 0.0 | 0.0 | 0.00 | 0.30 | 0.30 | 92 | 1009.2 | |
| 20260507010516 | 65 | 0.0 | 0.0 | 0.00 | 0.30 | 0.30 | 92 | 1009.2 | |
| 20260507010017 | 65 | 0.0 | 0.0 | 0.00 | 0.30 | 0.30 | 91 | 1009.3 | |
| 20260507005516 | 65 | 0.0 | 0.0 | 0.00 | 0.30 | 0.30 | 91 | 1009.1 | |
| 20260507005016 | 65 | 0.0 | 0.0 | 0.00 | 0.30 | 0.30 | 91 | 1008.9 | |
| 20260507004517 | 65 | 0.0 | 0.0 | 0.00 | 0.30 | 0.30 | 91 | 1008.8 | |
| 20260507004016 | 65 | 0.0 | 0.0 | 0.00 | 0.30 | 0.30 | 90 | 1008.9 | |
| 20260507003556 | 65 | 0.0 | 0.0 | 0.00 | 0.30 | 0.30 | 90 | 1008.9 | |
| 20260507003016 | 65 | 0.0 | 0.0 | 0.00 | 0.30 | 0.30 | 89 | 1008.8 | |
| 20260507002517 | 66 | 0.0 | 0.0 | 0.00 | 0.30 | 0.30 | 89 | 1008.7 | |
| 20260507002016 | 66 | 0.0 | 0.0 | 0.00 | 0.30 | 0.30 | 89 | 1008.6 | |
| 20260507001516 | 66 | 0.0 | 0.0 | 0.00 | 0.30 | 0.30 | 89 | 1008.5 | |
| 20260507001017 | 66 | 0.0 | 0.0 | 0.00 | 0.30 | 0.30 | 88 | 1008.5 | |
| 20260507000516 | 66 | 0.0 | 0.0 | 0.00 | 0.30 | 0.30 | 88 | 1008.6 | |
| 20260507000016 | 66 | 90 | 0.0 | 0.9 | 0.00 | 0.30 | 0.30 | 89 | 1008.6 |
| 20260506235518 | 66 | 0.0 | 0.0 | 0.00 | 0.30 | 0.30 | 89 | 1008.7 | |
| 20260506235036 | 66 | 0.0 | 0.0 | 0.00 | 0.30 | 0.30 | 89 | 1008.7 | |
| 20260506234516 | 66 | 0.0 | 0.0 | 0.00 | 0.30 | 0.30 | 89 | 1008.5 | |
| 20260506234016 | 66 | 0.0 | 0.0 | 0.00 | 0.30 | 0.30 | 89 | 1008.5 | |
| 20260506233517 | 67 | 90 | 0.0 | 0.9 | 0.00 | 0.30 | 0.30 | 88 | 1008.3 |
| 20260506233017 | 67 | 0.0 | 0.0 | 0.00 | 0.30 | 0.30 | 88 | 1008.3 | |
| 20260506232516 | 67 | 90 | 0.0 | 3.5 | 0.00 | 0.30 | 0.30 | 88 | 1008.4 |
| 20260506232016 | 67 | 0.0 | 0.0 | 0.00 | 0.30 | 0.30 | 87 | 1008.2 | |
| 20260506231516 | 67 | 0.0 | 0.0 | 0.00 | 0.30 | 0.30 | 87 | 1008.1 | |
| 20260506231016 | 68 | 90 | 0.0 | 0.9 | 0.00 | 0.30 | 0.30 | 87 | 1008.0 |
| 20260506230516 | 68 | 0.0 | 0.0 | 0.00 | 0.30 | 0.30 | 87 | 1008.0 | |
| 20260506230017 | 68 | 0.0 | 0.0 | 0.00 | 0.30 | 0.30 | 87 | 1008.0 | |
| 20260506225516 | 68 | 90 | 0.0 | 0.9 | 0.00 | 0.30 | 0.30 | 87 | 1007.9 |
| 20260506225016 | 67 | 0.0 | 0.0 | 0.00 | 0.30 | 0.30 | 86 | 1008.1 | |
| 20260506224516 | 68 | 90 | 0.0 | 0.9 | 0.00 | 0.30 | 0.30 | 87 | 1008.1 |
| 20260506224016 | 68 | 0.0 | 0.0 | 0.00 | 0.30 | 0.30 | 87 | 1008.1 | |
| 20260506223516 | 68 | 90 | 0.0 | 0.9 | 0.00 | 0.30 | 0.30 | 86 | 1008.0 |
| 20260506223016 | 68 | 90 | 0.0 | 0.9 | 0.00 | 0.30 | 0.30 | 86 | 1007.9 |
| 20260506222517 | 68 | 90 | 0.0 | 0.9 | 0.00 | 0.30 | 0.30 | 86 | 1007.9 |
| 20260506222016 | 68 | 90 | 0.0 | 0.9 | 0.00 | 0.30 | 0.30 | 86 | 1007.9 |
| 20260506221516 | 68 | 90 | 0.0 | 0.9 | 0.00 | 0.30 | 0.30 | 85 | 1007.9 |
| 20260506221016 | 68 | 90 | 0.0 | 0.9 | 0.00 | 0.30 | 0.30 | 86 | 1007.9 |
| 20260506220516 | 68 | 90 | 0.0 | 0.9 | 0.00 | 0.30 | 0.30 | 86 | 1007.8 |
| 20260506220037 | 68 | 90 | 0.0 | 0.9 | 0.00 | 0.30 | 0.30 | 86 | 1007.9 |
| 20260506215516 | 69 | 90 | 0.0 | 0.9 | 0.00 | 0.30 | 0.30 | 85 | 1008.0 |
| 20260506215016 | 69 | 90 | 0.0 | 0.9 | 0.00 | 0.30 | 0.30 | 85 | 1007.9 |
| 20260506214516 | 69 | 90 | 0.0 | 0.9 | 0.00 | 0.30 | 0.30 | 85 | 1007.9 |
| 20260506214016 | 69 | 90 | 0.0 | 0.9 | 0.00 | 0.30 | 0.30 | 85 | 1008.0 |
| 20260506213516 | 69 | 90 | 0.0 | 0.9 | 0.00 | 0.30 | 0.30 | 83 | 1007.9 |
| 20260506213016 | 69 | 90 | 0.0 | 0.9 | 0.00 | 0.30 | 0.30 | 83 | 1007.8 |
| 20260506212517 | 70 | 90 | 0.0 | 1.7 | 0.00 | 0.30 | 0.30 | 81 | 1007.7 |
| 20260506212016 | 70 | 90 | 0.0 | 1.7 | 0.00 | 0.30 | 0.30 | 82 | 1007.7 |
| 20260506211516 | 70 | 90 | 0.0 | 0.9 | 0.00 | 0.30 | 0.30 | 83 | 1007.7 |
| 20260506211016 | 70 | 90 | 0.9 | 5.2 | 0.00 | 0.30 | 0.30 | 84 | 1007.6 |
| 20260506210516 | 70 | 90 | 0.0 | 1.7 | 0.00 | 0.30 | 0.30 | 82 | 1007.5 |
| 20260506210016 | 70 | 90 | 0.0 | 1.7 | 0.00 | 0.30 | 0.30 | 83 | 1007.5 |
| 20260506205537 | 70 | 90 | 0.0 | 0.9 | 0.00 | 0.30 | 0.30 | 82 | 1007.4 |
| 20260506205016 | 70 | 90 | 0.0 | 1.7 | 0.00 | 0.30 | 0.30 | 81 | 1007.6 |
| 20260506204516 | 70 | 90 | 0.0 | 1.7 | 0.00 | 0.30 | 0.30 | 82 | 1007.6 |
| 20260506204016 | 71 | 90 | 0.0 | 1.7 | 0.00 | 0.30 | 0.30 | 83 | 1007.3 |
| 20260506203516 | 71 | 90 | 0.9 | 2.6 | 0.00 | 0.30 | 0.30 | 79 | 1007.2 |
| 20260506203016 | 72 | 90 | 0.0 | 1.7 | 0.00 | 0.30 | 0.30 | 80 | 1007.5 |
| 20260506202537 | 72 | 0.0 | 0.0 | 0.00 | 0.30 | 0.30 | 82 | 1007.6 | |
| 20260506202016 | 71 | 90 | 0.0 | 0.9 | 0.00 | 0.30 | 0.30 | 79 | 1007.5 |
| 20260506201516 | 71 | 90 | 0.0 | 1.7 | 0.00 | 0.30 | 0.30 | 80 | 1007.5 |
| 20260506201016 | 71 | 90 | 0.0 | 1.7 | 0.00 | 0.30 | 0.30 | 81 | 1007.5 |
| 20260506200516 | 71 | 90 | 0.9 | 2.6 | 0.00 | 0.30 | 0.30 | 81 | 1007.5 |
| 20260506200017 | 71 | 90 | 0.0 | 2.6 | 0.00 | 0.30 | 0.30 | 82 | 1007.6 |
| 20260506195516 | 70 | 90 | 0.9 | 2.6 | 0.00 | 0.30 | 0.30 | 82 | 1007.4 |
| 20260506195016 | 71 | 90 | 0.9 | 2.6 | 0.00 | 0.30 | 0.30 | 81 | 1007.6 |
| 20260506194516 | 71 | 90 | 0.9 | 1.7 | 0.00 | 0.30 | 0.30 | 82 | 1007.7 |
| 20260506194016 | 70 | 90 | 0.0 | 1.7 | 0.00 | 0.30 | 0.30 | 83 | 1007.6 |
| 20260506193516 | 70 | 90 | 0.9 | 2.6 | 0.00 | 0.30 | 0.30 | 80 | 1007.6 |
| 20260506193036 | 70 | 90 | 0.9 | 3.5 | 0.00 | 0.30 | 0.30 | 82 | 1007.8 |
| 20260506192517 | 70 | 90 | 0.9 | 2.6 | 0.00 | 0.30 | 0.30 | 81 | 1007.8 |
| 20260506192016 | 70 | 90 | 0.9 | 1.7 | 0.00 | 0.30 | 0.30 | 83 | 1007.7 |
| 20260506191516 | 70 | 90 | 0.9 | 2.6 | 0.00 | 0.30 | 0.30 | 83 | 1007.7 |
| 20260506191016 | 70 | 90 | 0.0 | 1.7 | 0.00 | 0.30 | 0.30 | 86 | 1007.8 |
| 20260506190516 | 69 | 90 | 0.9 | 1.7 | 0.00 | 0.30 | 0.30 | 87 | 1007.9 |
| 20260506190016 | 68 | 90 | 0.0 | 1.7 | 0.00 | 0.30 | 0.30 | 86 | 1007.9 |
| 20260506185516 | 68 | 90 | 0.0 | 2.6 | 0.00 | 0.30 | 0.30 | 86 | 1007.9 |
| 20260506185037 | 67 | 90 | 0.0 | 2.6 | 0.00 | 0.30 | 0.30 | 89 | 1008.1 |
| 20260506184516 | 67 | 90 | 0.0 | 0.9 | 0.00 | 0.30 | 0.30 | 88 | 1008.0 |
| 20260506184016 | 67 | 90 | 0.0 | 1.7 | 0.00 | 0.30 | 0.30 | 88 | 1008.1 |
| 20260506183516 | 66 | 90 | 0.9 | 2.6 | 0.00 | 0.30 | 0.30 | 88 | 1008.2 |
| 20260506183016 | 67 | 90 | 0.0 | 1.7 | 0.00 | 0.30 | 0.30 | 88 | 1008.4 |
| 20260506182537 | 67 | 90 | 0.9 | 2.6 | 0.00 | 0.30 | 0.30 | 88 | 1008.2 |
| 20260506182016 | 66 | 90 | 0.9 | 1.7 | 0.00 | 0.30 | 0.30 | 88 | 1008.3 |
| 20260506181516 | 66 | 90 | 0.9 | 2.6 | 0.00 | 0.30 | 0.30 | 89 | 1008.3 |
| 20260506181036 | 66 | 90 | 0.0 | 1.7 | 0.00 | 0.30 | 0.30 | 90 | 1008.4 |
| 20260506180516 | 65 | 90 | 0.9 | 1.7 | 0.00 | 0.30 | 0.30 | 90 | 1008.5 |
| 20260506180037 | 65 | 90 | 0.9 | 4.3 | 0.00 | 0.30 | 0.30 | 91 | 1008.5 |
| 20260506175516 | 64 | 90 | 0.9 | 2.6 | 0.00 | 0.30 | 0.30 | 91 | 1008.6 |
| 20260506175016 | 64 | 90 | 0.0 | 0.9 | 0.00 | 0.30 | 0.30 | 93 | 1008.7 |
| 20260506174516 | 64 | 90 | 0.0 | 1.7 | 0.00 | 0.30 | 0.30 | 93 | 1008.7 |
| 20260506174016 | 64 | 90 | 0.0 | 1.7 | 0.00 | 0.30 | 0.30 | 93 | 1008.6 |
| 20260506173516 | 63 | 90 | 0.0 | 1.7 | 0.00 | 0.30 | 0.30 | 93 | 1008.6 |
| 20260506173016 | 63 | 90 | 0.9 | 2.6 | 0.00 | 0.30 | 0.30 | 92 | 1008.7 |
| 20260506172536 | 63 | 90 | 0.9 | 2.6 | 0.00 | 0.30 | 0.30 | 92 | 1008.7 |
| 20260506172016 | 63 | 90 | 0.9 | 3.5 | 0.00 | 0.30 | 0.30 | 93 | 1008.8 |
| 20260506171517 | 63 | 90 | 0.9 | 2.6 | 0.00 | 0.30 | 0.30 | 94 | 1008.9 |
| 20260506171015 | 63 | 90 | 0.0 | 2.6 | 0.00 | 0.30 | 0.30 | 93 | 1008.9 |
| 20260506170516 | 63 | 90 | 0.0 | 2.6 | 0.00 | 0.30 | 0.30 | 94 | 1008.9 |
| 20260506170016 | 63 | 90 | 0.9 | 3.5 | 0.00 | 0.30 | 0.30 | 93 | 1008.8 |
| 20260506165516 | 63 | 90 | 0.9 | 3.5 | 0.00 | 0.30 | 0.30 | 93 | 1008.9 |
| 20260506165016 | 63 | 90 | 0.0 | 1.7 | 0.00 | 0.30 | 0.30 | 94 | 1008.9 |
| 20260506164516 | 63 | 90 | 0.9 | 1.7 | 0.00 | 0.30 | 0.30 | 94 | 1008.9 |
| 20260506164015 | 62 | 90 | 0.0 | 1.7 | 0.00 | 0.30 | 0.30 | 94 | 1008.9 |
| 20260506163536 | 62 | 90 | 0.0 | 1.7 | 0.00 | 0.30 | 0.30 | 95 | 1008.9 |
| 20260506163016 | 62 | 90 | 0.9 | 3.5 | 0.00 | 0.30 | 0.30 | 94 | 1009.1 |
| 20260506162516 | 62 | 90 | 0.9 | 4.3 | 0.00 | 0.30 | 0.30 | 95 | 1008.9 |
| 20260506162016 | 62 | 90 | 0.9 | 3.5 | 0.01 | 0.30 | 0.30 | 95 | 1009.0 |
| 20260506161516 | 61 | 90 | 0.9 | 4.3 | 0.01 | 0.30 | 0.30 | 95 | 1009.0 |
| 20260506161016 | 61 | 90 | 0.9 | 4.3 | 0.03 | 0.30 | 0.30 | 95 | 1009.0 |
| 20260506160516 | 61 | 90 | 0.9 | 2.6 | 0.04 | 0.30 | 0.30 | 95 | 1009.0 |
| 20260506160015 | 61 | 90 | 0.0 | 1.7 | 0.04 | 0.30 | 0.30 | 95 | 1009.1 |
| 20260506155516 | 61 | 90 | 0.9 | 4.3 | 0.04 | 0.30 | 0.30 | 95 | 1009.2 |
| 20260506155016 | 61 | 90 | 0.9 | 2.6 | 0.04 | 0.30 | 0.30 | 96 | 1009.1 |
| 20260506154516 | 61 | 90 | 0.0 | 2.6 | 0.04 | 0.30 | 0.30 | 96 | 1009.2 |
| 20260506154016 | 60 | 90 | 0.9 | 1.7 | 0.05 | 0.30 | 0.30 | 96 | 1009.2 |
| 20260506153516 | 60 | 90 | 0.9 | 2.6 | 0.05 | 0.30 | 0.30 | 95 | 1009.4 |
| 20260506153015 | 60 | 90 | 0.0 | 2.6 | 0.06 | 0.30 | 0.30 | 96 | 1009.4 |
| 20260506152516 | 60 | 90 | 0.0 | 1.7 | 0.06 | 0.30 | 0.30 | 95 | 1009.3 |
| 20260506152015 | 60 | 90 | 0.0 | 0.9 | 0.07 | 0.29 | 0.29 | 95 | 1009.3 |
| 20260506151515 | 60 | 90 | 0.0 | 1.7 | 0.08 | 0.29 | 0.29 | 95 | 1009.4 |